GFSWCAN_850_rhum_096.txt.gz
RH
97 86 94 90 92 97 95 96 100 97 86 91 92 97 94 95 98 99 98 99 98 90 74 68 59 57 64 90 88 78 83 88 94 93 95 92 95 79 81 61 71 76 94 97 80 95 94 90 78 87 89 90 94 95
91 88 87 90 88 90 95 98 98 98 85 96 98 99 96 99 98 100 100 99 99 98 82 77 71 66 66 81 79 74 86 98 99 99 96 96 97 96 93 91 81 91 98 97 83 80 94 99 98 98 92 95 100 98
68 86 84 87 88 89 92 100 100 100 96 96 100 99 93 100 100 100 100 100 99 99 97 92 69 66 62 52 65 72 86 81 85 99 98 100 95 96 98 96 93 83 92 100 100 99 97 100 100 99 100 99 100 99
89 78 81 86 87 88 97 100 100 100 100 100 100 94 99 100 100 99 99 98 99 99 100 75 63 58 54 66 58 60 66 81 76 99 98 96 94 84 85 88 96 93 90 98 100 98 99 98 99 99 98 99 97 98
86 77 82 88 86 90 100 100 99 100 100 100 100 100 99 99 99 100 99 98 98 97 90 78 74 68 54 58 61 66 71 75 87 92 99 98 94 94 89 89 90 98 99 98 99 99 99 98 98 98 97 97 98 96
86 81 79 84 88 93 100 94 98 99 98 99 100 100 98 99 99 100 100 100 99 100 99 98 74 67 76 56 57 58 69 81 84 80 92 74 73 91 98 99 98 98 98 100 99 99 98 98 98 98 96 97 96 88
79 83 92 89 88 94 89 99 100 100 99 99 99 100 100 99 100 99 97 93 99 100 99 98 92 87 90 78 77 74 73 88 76 99 99 84 87 98 98 98 98 98 98 97 97 99 98 96 97 97 98 100 98 92
83 82 82 88 95 80 73 92 89 88 90 92 96 93 94 99 99 99 99 94 99 100 99 99 96 85 82 84 86 79 80 74 80 99 94 96 99 98 96 94 97 94 96 94 94 95 98 99 95 92 89 92 96 100
78 68 84 92 70 65 80 91 96 98 98 98 99 99 98 99 100 99 98 99 100 99 98 90 96 96 98 97 98 98 81 99 77 97 98 92 92 97 93 90 97 94 93 84 93 86 100 96 97 90 86 90 100 100
67 72 86 68 68 89 97 98 99 100 99 99 99 99 99 98 100 99 99 99 99 99 99 93 86 96 93 89 90 97 91 98 89 92 99 94 99 98 98 97 90 86 82 76 81 91 99 99 100 97 100 100 100 100
68 79 68 65 90 98 99 100 98 97 97 99 99 99 95 100 99 99 99 98 99 100 99 95 96 96 96 96 96 90 80 80 95 94 98 95 93 94 98 92 88 84 82 84 90 100 100 100 100 99 96 97 96 96
77 65 70 93 99 99 99 94 87 99 99 98 98 99 99 98 99 98 98 98 90 90 98 94 96 94 99 98 99 98 94 98 97 98 96 98 97 100 98 91 83 81 82 86 94 97 100 100 93 92 90 90 92 94
87 92 97 100 99 100 98 97 99 96 92 100 98 98 100 98 98 93 97 94 98 91 98 100 99 98 100 100 100 94 88 97 97 96 96 96 97 98 94 89 86 83 83 80 77 77 83 87 86 84 86 89 89 87
98 99 100 98 99 96 95 99 100 100 88 89 96 96 97 96 95 93 93 93 93 99 100 96 98 99 100 99 99 95 96 96 93 96 91 97 98 96 87 84 82 81 81 82 83 83 82 82 81 81 82 84 86 83
99 99 99 96 100 100 100 100 98 92 59 77 73 100 98 92 97 99 100 98 100 86 84 97 92 87 97 95 95 95 95 100 95 92 95 97 93 87 81 82 83 82 85 86 89 88 88 90 88 88 92 94 93 92
99 99 100 100 98 100 99 96 66 51 68 76 88 94 98 94 97 97 100 100 100 93 95 75 93 92 96 92 86 92 91 92 90 98 98 94 89 86 81 80 82 84 86 85 87 87 89 91 90 89 91 94 95 95
99 98 100 100 100 99 87 57 51 66 80 86 97 97 96 96 97 97 97 100 99 88 92 89 87 89 81 90 93 96 93 93 100 98 91 84 79 81 82 82 83 84 84 85 86 88 89 90 91 92 93 90 91 86
98 99 99 100 96 63 46 51 61 76 96 94 94 97 99 99 97 97 97 98 81 68 67 88 77 89 93 86 95 97 100 99 88 89 87 84 81 83 83 82 84 85 84 85 87 88 88 88 90 92 94 94 93 93
96 98 99 95 82 57 62 63 65 95 99 97 96 94 89 94 85 81 80 74 64 60 58 69 89 96 98 94 97 96 99 94 96 91 87 88 88 86 87 88 85 85 90 92 94 96 96 95 95 99 100 100 100 100
98 98 100 97 68 60 72 77 75 83 96 96 94 94 88 86 86 75 58 57 54 60 81 95 97 97 94 88 79 76 77 78 81 93 98 94 91 86 87 90 93 95 95 95 94 95 99 100 100 99 97 97 100 100
100 96 91 66 57 64 73 78 84 84 89 95 92 90 93 73 65 63 63 63 66 94 98 100 100 91 77 70 73 74 76 71 67 64 73 83 83 90 91 91 92 93 94 96 96 98 98 100 100 99 96 90 80 86
88 64 58 59 66 68 72 77 75 78 88 93 91 80 83 77 72 70 70 77 97 97 96 94 88 80 76 75 75 72 74 74 71 74 78 78 83 90 91 89 93 96 99 100 100 98 93 87 90 97 98 93 79 87
58 53 58 64 69 71 82 89 77 78 97 100 88 84 86 83 67 67 96 97 99 96 94 83 77 71 69 74 72 75 80 74 74 78 82 86 89 93 94 92 91 90 93 94 95 94 80 66 73 92 95 96 93 87
55 60 70 79 81 99 89 74 71 82 94 94 91 95 86 81 77 82 100 100 100 100 98 89 81 85 89 88 89 89 93 92 86 90 94 91 84 71 63 58 57 57 67 81 86 80 88 83 78 89 97 98 99 97
58 79 74 95 82 84 92 96 95 88 96 99 95 97 96 84 96 100 96 99 99 100 99 93 88 83 81 91 96 94 90 85 76 68 73 82 74 61 58 68 73 78 79 81 83 87 91 95 89 88 95 98 98 99
95 98 86 98 96 88 94 97 96 96 96 94 92 95 90 94 98 93 92 91 100 100 96 86 84 83 81 74 68 59 62 72 69 66 66 67 68 75 83 93 97 96 95 95 93 89 79 89 98 96 96 93 94 97
93 98 94 93 97 86 92 85 83 90 96 94 98 99 95 100 100 96 100 99 95 89 84 83 77 73 73 66 62 69 74 73 65 57 53 44 40 43 47 59 83 83 80 84 81 72 69 61 94 100 100 99 99 100
92 87 92 91 83 86 99 99 100 100 99 98 88 99 95 96 99 99 99 95 83 84 85 86 79 74 71 63 60 58 62 67 58 51 33 32 46 47 42 33 28 30 33 35 40 42 46 50 70 90 96 97 99 96
75 73 66 94 85 94 100 100 100 100 100 91 98 100 100 100 98 99 97 85 82 79 85 84 93 94 78 67 69 73 62 53 43 33 39 46 51 51 48 31 31 31 31 33 39 46 51 57 61 68 71 74 78 85
78 68 83 94 99 100 100 100 100 100 99 95 94 95 96 98 99 100 92 84 82 82 83 89 83 83 76 76 70 46 28 25 33 42 36 39 40 37 31 34 34 34 35 36 38 40 41 46 48 53 56 60 69 78
73 73 89 95 100 99 99 97 95 93 90 93 88 89 98 98 98 98 100 96 96 94 90 89 86 89 82 52 33 28 29 25 24 23 23 24 27 29 30 30 30 31 33 33 33 35 36 38 40 41 43 45 46 47
74 82 88 100 99 98 96 84 87 90 94 90 95 92 87 83 93 97 97 97 98 96 93 90 86 67 46 35 24 28 35 26 24 24 26 26 27 26 25 27 27 28 30 32 33 34 35 38 42 46 52 56 59 63
88 91 94 94 100 100 98 88 84 86 85 88 93 92 82 84 94 93 99 98 99 99 96 89 67 52 38 33 38 33 31 29 26 27 27 26 24 24 24 27 31 32 32 35 41 46 50 54 58 62 68 72 73 74

GFSWCAN_850_rhum_102.txt.gz
RH
84 97 91 80 76 76 86 83 95 84 90 93 91 89 86 82 95 99 98 98 99 98 74 80 73 64 56 58 62 58 68 66 71 68 68 71 67 61 56 62 68 58 64 65 59 67 80 97 54 73 97 99 99 100
84 75 72 78 85 80 80 92 99 84 85 91 93 91 84 86 98 99 99 92 99 100 87 78 79 73 75 69 72 66 66 73 72 74 76 77 74 72 75 65 56 88 84 84 88 98 99 99 99 100 99 100 98 98
82 76 76 90 96 90 73 80 90 80 90 90 97 95 84 89 98 99 100 99 100 99 98 100 81 79 64 73 84 65 67 80 72 86 83 82 86 68 73 70 66 80 64 81 98 95 98 98 99 98 99 99 99 98
93 82 75 65 84 92 78 75 86 82 88 92 91 93 87 87 87 97 99 98 100 99 94 70 60 72 70 61 77 84 74 91 89 76 76 74 63 63 67 71 72 71 66 94 99 95 91 94 100 100 100 100 100 100
94 92 83 67 69 77 75 72 91 80 87 99 93 92 97 96 96 96 99 98 99 97 81 67 82 75 75 61 67 87 79 72 71 64 74 66 59 62 67 71 71 70 84 83 90 98 92 97 100 100 100 100 100 96
72 84 92 82 79 71 71 75 87 86 96 100 97 97 97 100 99 100 99 100 100 100 99 80 85 94 81 80 86 87 82 81 76 71 65 62 66 70 75 74 85 90 97 100 95 99 99 98 97 98 98 98 88 85
65 70 78 94 91 78 81 81 81 92 89 81 98 98 100 100 99 99 98 93 94 100 99 91 68 98 96 92 93 89 89 85 84 73 76 65 63 75 89 75 94 96 100 100 99 98 99 98 96 98 95 91 91 89
71 69 73 87 91 77 70 70 85 88 92 85 95 96 99 99 99 100 99 90 99 99 99 89 79 80 88 83 81 89 75 78 71 65 87 75 83 84 88 84 85 94 96 100 100 96 97 97 96 86 86 86 86 87
78 74 74 80 88 79 79 74 78 83 90 86 94 99 99 99 99 98 99 98 97 98 98 90 81 86 96 93 96 99 83 85 77 76 71 73 66 84 82 73 76 79 78 77 96 99 98 95 84 84 84 85 87 96
79 80 71 80 80 81 76 77 74 93 91 90 98 99 98 99 100 99 99 99 99 99 99 87 78 83 91 94 90 92 86 68 78 71 85 77 65 92 85 80 79 78 76 73 77 74 83 85 89 90 94 98 100 100
80 77 72 80 86 78 68 89 98 81 98 98 98 96 99 100 99 98 99 99 99 99 99 86 78 85 93 82 77 80 76 67 74 73 82 79 73 84 93 85 81 81 83 84 85 89 91 91 92 92 96 100 100 100
84 76 76 85 83 68 60 89 86 88 98 88 91 100 99 99 99 98 91 97 84 73 86 89 86 75 95 95 73 80 77 76 77 83 85 78 87 87 89 88 85 85 87 90 91 94 98 98 97 99 100 100 90 86
83 77 80 87 83 75 69 88 82 78 99 97 99 99 99 99 97 92 89 84 82 84 89 88 92 96 95 98 94 83 90 86 92 94 76 82 83 86 88 85 88 92 94 95 98 100 100 100 100 100 98 90 88 86
76 78 86 87 77 76 76 82 86 97 98 98 98 95 92 95 83 74 64 71 85 91 89 87 88 89 95 98 96 98 87 89 91 88 83 80 86 94 93 93 96 96 84 89 94 89 84 83 84 84 84 86 86 83
81 74 69 72 80 83 89 96 98 98 98 98 97 92 96 93 99 97 100 100 97 95 90 96 95 86 93 99 93 93 95 84 75 77 82 86 98 100 100 88 77 78 79 79 81 82 84 85 85 85 85 85 84 73
76 85 86 83 92 95 98 98 98 97 97 93 92 92 96 90 97 97 96 99 93 94 83 80 92 95 94 87 93 87 78 76 86 81 89 100 100 96 76 73 73 75 76 78 80 80 80 82 82 82 82 82 77 76
90 92 76 93 98 99 100 99 97 95 94 96 93 100 99 93 94 100 100 98 96 90 98 81 91 87 76 83 87 77 84 85 87 95 97 100 82 72 73 74 76 77 77 77 77 80 82 83 84 86 92 87 86 86
98 98 99 98 98 99 96 79 72 82 90 97 88 99 100 100 100 99 97 98 88 83 74 77 70 82 82 78 78 84 90 96 98 100 100 88 71 73 73 72 74 75 76 78 79 79 79 81 85 100 87 87 90 93
99 99 100 98 85 88 87 72 73 83 94 99 100 100 100 100 100 97 98 97 84 64 68 73 80 76 78 76 83 91 96 97 99 100 98 78 74 72 73 74 75 76 77 80 84 98 100 91 99 100 100 100 100 100
99 99 98 89 69 53 74 84 82 80 82 96 98 96 98 99 97 97 88 79 78 61 75 75 77 86 88 97 96 94 98 100 96 97 100 99 79 77 77 79 92 84 91 94 98 96 100 100 100 100 100 100 100 100
74 66 59 64 56 59 84 83 87 88 90 89 98 95 97 100 100 100 95 76 86 83 76 92 99 96 80 87 100 100 100 91 87 84 93 100 98 100 80 96 90 100 100 100 100 100 97 100 100 100 100 100 85 100
65 57 54 53 60 68 85 82 83 89 87 92 90 88 92 92 94 97 80 83 83 94 96 97 99 84 88 90 89 94 81 75 70 79 81 73 97 100 100 100 100 100 100 100 100 100 100 99 78 66 98 91 81 100
76 72 59 57 66 76 86 90 84 81 81 84 78 77 81 81 81 76 86 85 98 99 99 100 93 94 77 74 70 67 65 62 74 69 80 100 100 98 96 94 100 100 100 100 95 100 98 64 58 59 75 88 100 100
57 55 71 80 84 94 94 87 86 84 85 76 70 84 78 78 79 71 78 85 100 100 100 96 90 92 85 78 78 69 73 75 64 78 81 74 71 67 66 55 54 58 74 73 67 68 65 65 62 69 71 97 100 100
60 86 83 90 88 83 85 86 85 77 88 82 82 85 84 81 75 73 73 90 100 100 100 100 97 90 87 94 81 71 70 65 64 85 79 72 37 32 40 44 47 50 56 61 67 74 77 72 71 73 82 91 100 100
90 100 89 89 88 79 81 87 84 85 80 83 85 89 91 81 80 74 68 95 100 100 100 100 97 96 96 89 86 82 80 77 76 67 46 41 39 41 44 47 58 66 62 65 69 78 99 72 77 78 92 93 88 85
91 94 94 94 95 84 86 84 80 75 82 86 86 90 84 84 78 81 100 100 100 100 100 100 82 76 72 81 85 83 74 68 69 47 35 30 32 33 36 43 54 54 44 43 45 44 42 41 42 54 72 79 82 81
91 88 87 91 91 90 89 86 87 90 86 91 84 89 83 78 79 100 100 100 100 96 83 84 84 79 75 74 65 52 51 48 45 37 28 23 26 30 30 31 26 26 28 30 30 32 34 36 40 45 53 63 62 60
90 88 77 88 87 90 93 90 88 95 100 93 83 85 88 100 100 100 100 99 98 98 93 84 81 78 70 60 61 64 60 53 40 23 24 26 27 32 33 26 27 28 29 30 30 29 30 31 34 37 41 45 46 50
90 86 84 89 86 89 98 100 100 100 100 98 100 99 100 100 100 99 99 99 98 96 87 82 78 75 62 63 63 66 62 48 30 30 28 28 27 27 27 26 26 27 27 28 29 30 29 32 34 37 40 43 47 51
82 91 89 88 89 100 100 98 96 92 92 100 95 98 99 100 98 98 97 97 98 95 87 78 74 74 67 62 63 59 44 31 29 28 24 22 23 24 24 24 24 24 26 28 29 31 35 40 46 50 54 57 60 63
92 95 85 87 93 98 94 96 100 100 100 99 100 95 95 100 100 97 97 97 98 94 83 85 85 79 80 81 68 38 31 30 25 24 23 23 23 22 22 22 26 28 28 32 39 44 49 53 56 59 61 63 66 68
92 97 100 95 94 96 99 95 91 93 97 94 100 90 91 99 97 97 98 98 97 97 98 97 92 88 66 41 34 31 31 26 25 24 24 22 21 21 25 27 28 33 40 46 50 53 54 56 59 61 64 66 68 70

GFSWCAN_850_rhum_105.txt.gz
RH
87 91 89 90 83 80 76 85 82 95 85 85 82 89 97 97 91 93 95 90 98 92 65 64 65 61 52 47 51 44 55 58 65 66 62 63 61 50 54 43 53 59 75 60 52 53 86 98 58 85 99 98 99 99
84 94 99 95 88 82 77 79 80 91 85 90 88 83 89 92 86 94 96 99 99 100 74 95 89 83 76 68 64 50 56 66 63 73 70 69 71 56 54 90 48 76 71 79 91 96 98 100 97 99 97 96 99 99
75 80 92 91 82 87 76 73 79 97 88 78 94 86 88 85 84 89 99 99 99 100 94 78 63 73 78 86 76 60 50 63 72 73 84 70 85 51 67 66 59 69 52 80 90 90 87 90 92 98 97 98 100 100
97 96 84 74 81 92 85 72 74 97 86 80 90 87 91 85 90 99 100 99 100 98 92 65 57 72 80 79 82 78 70 71 72 57 75 66 64 45 58 56 67 60 62 92 93 86 83 86 94 98 100 97 88 80
97 96 85 82 76 70 85 76 72 78 78 88 92 86 89 88 88 95 98 95 99 98 96 75 66 72 83 80 78 80 73 66 54 52 66 70 51 51 52 53 85 62 76 81 96 96 89 92 98 97 96 93 84 72
87 96 96 84 72 67 83 77 69 89 86 86 87 84 93 88 87 98 100 97 96 100 99 83 76 74 83 84 76 75 69 63 54 58 60 57 53 58 75 71 76 80 91 97 95 100 100 99 100 100 97 88 75 71
78 94 95 93 79 73 70 75 75 91 87 85 82 87 96 99 99 99 98 100 91 99 99 86 61 86 81 78 73 71 70 67 66 71 60 52 58 62 71 68 86 92 98 100 100 99 96 98 91 96 89 76 74 72
69 67 70 83 82 79 75 75 76 78 90 90 84 91 98 99 99 100 99 89 100 99 99 83 70 72 83 76 78 75 71 70 66 59 63 58 68 63 77 79 80 90 89 95 98 99 100 98 92 83 72 71 72 73
65 61 66 74 79 83 75 74 78 82 89 84 96 98 98 99 99 99 98 99 98 96 98 86 74 92 80 93 92 82 82 83 63 75 69 56 58 79 84 64 66 76 74 76 90 95 94 84 77 74 70 73 75 83
64 70 61 73 84 92 78 71 73 74 87 84 97 99 98 99 99 99 99 99 99 99 96 80 61 88 78 83 80 82 75 74 83 70 69 73 60 82 69 66 68 68 64 65 70 70 72 74 76 77 82 86 90 92
75 68 70 71 83 92 82 74 74 76 91 96 98 98 100 99 99 99 98 99 98 95 94 82 62 78 75 76 76 69 73 65 70 67 70 74 65 82 76 70 69 69 68 69 71 74 75 76 79 80 85 90 93 100
84 71 78 73 83 86 74 74 76 92 95 85 98 99 99 99 98 97 93 82 72 61 69 78 71 67 82 76 70 72 77 67 78 66 74 67 87 78 77 74 72 72 72 74 76 81 83 84 84 86 92 99 100 92
91 84 74 75 90 87 66 69 95 96 96 98 99 99 98 98 99 90 89 74 74 65 80 74 91 90 84 83 82 74 85 82 69 84 73 85 77 76 76 75 76 79 80 80 84 86 87 89 92 95 100 93 82 77
86 82 78 77 90 80 62 65 90 92 98 96 97 100 98 97 83 66 51 65 66 77 77 80 87 76 96 88 98 91 85 73 84 78 73 80 80 84 79 80 82 92 97 95 100 100 91 77 75 75 76 78 78 78
80 82 82 82 90 80 69 66 88 93 97 97 98 93 93 87 98 99 99 90 84 85 86 85 84 84 92 91 86 84 94 82 69 70 84 85 93 92 95 100 100 93 88 99 89 75 75 76 78 80 80 79 72 64
76 83 91 92 84 73 73 83 98 99 96 98 98 95 98 92 96 94 99 98 86 89 80 66 81 85 91 77 88 82 74 74 93 85 89 95 96 99 100 100 92 90 100 92 76 77 79 81 91 84 79 77 76 76
78 99 87 76 67 85 96 99 98 96 97 98 92 100 99 92 92 92 87 96 92 85 96 68 91 81 66 76 78 66 86 91 87 93 93 96 100 100 99 88 78 82 95 100 98 99 89 89 83 99 100 98 100 92
100 90 76 67 86 98 98 98 97 97 95 93 85 97 100 99 99 98 88 95 94 77 70 72 65 80 88 83 73 89 89 91 93 96 100 100 100 82 78 73 74 86 98 96 88 83 82 81 100 100 100 99 100 95
80 82 82 91 96 97 97 97 96 85 90 97 100 100 99 99 100 100 96 99 94 81 75 72 92 76 79 80 89 91 93 94 97 99 100 100 98 78 72 71 76 97 91 85 95 99 100 100 100 97 91 90 86 84
86 88 99 98 97 97 97 92 81 75 80 91 96 93 95 97 100 100 99 96 77 73 80 77 82 93 93 98 93 93 94 94 93 93 98 100 86 75 72 84 100 100 97 100 100 96 96 92 89 89 90 90 96 92
98 98 98 98 87 77 94 77 75 80 90 89 88 84 92 97 99 100 99 92 97 91 82 91 100 100 99 100 98 97 98 86 83 82 89 98 100 100 100 100 100 100 94 93 91 94 89 88 89 93 100 100 100 100
98 97 94 80 78 80 80 75 73 77 86 86 85 83 90 92 94 98 89 96 88 92 94 92 97 100 100 100 100 96 92 90 85 93 94 98 97 96 95 100 97 97 93 96 90 92 95 93 98 100 100 100 99 100
70 67 62 58 72 82 89 91 78 71 80 82 75 80 86 87 88 81 92 80 96 100 94 95 98 95 100 100 99 90 81 95 94 99 98 93 92 95 94 94 94 97 92 91 92 95 99 95 87 77 100 98 100 100
68 77 71 92 81 92 93 80 73 73 76 74 74 83 78 78 78 75 81 77 98 98 95 100 97 96 95 90 85 88 88 88 94 95 94 90 90 90 91 89 92 94 90 90 98 100 100 100 88 98 100 100 100 100
79 86 91 89 88 81 80 81 77 71 80 73 79 81 81 77 84 79 77 85 94 93 95 91 85 79 77 79 87 95 94 89 87 91 94 86 89 88 87 89 89 87 44 100 100 100 100 100 100 100 100 100 100 100
84 97 89 81 84 77 74 84 80 79 74 79 80 74 82 81 86 83 62 88 96 100 100 96 86 79 80 84 91 91 92 93 91 89 92 88 85 93 92 92 97 93 45 60 99 100 100 100 100 100 100 100 99 93
85 88 86 86 80 76 80 76 70 72 77 79 79 86 85 86 82 77 90 99 99 97 99 96 85 82 82 86 96 100 100 96 91 84 68 52 43 59 98 99 98 92 42 35 38 46 88 99 100 100 100 100 100 100
84 84 84 92 85 81 82 78 79 80 79 77 74 81 77 78 79 97 100 95 98 97 98 95 94 94 99 100 94 70 63 59 48 40 33 30 28 26 27 27 27 25 25 27 27 27 29 35 77 100 100 100 100 100
88 89 75 84 80 83 83 81 80 83 92 86 78 77 80 95 100 100 100 99 98 96 100 100 100 97 90 91 81 62 46 38 35 33 45 57 27 27 28 25 23 24 24 25 24 24 25 26 29 33 36 50 79 54
91 93 79 83 81 84 92 97 95 100 100 98 90 89 96 100 100 100 100 100 99 98 100 98 87 86 80 65 56 54 46 40 35 71 86 91 89 28 26 24 23 23 23 25 28 28 27 31 36 59 53 57 100 96
93 91 84 81 84 93 100 100 100 100 100 100 98 90 94 100 100 98 96 98 96 96 97 98 100 82 67 61 59 57 54 43 27 26 25 24 22 23 23 22 21 21 24 26 27 32 39 44 58 57 82 73 64 63
91 87 80 83 88 100 100 96 93 91 92 90 95 98 100 96 91 100 97 96 99 100 100 100 99 99 85 75 61 61 50 31 27 27 23 22 22 21 20 20 23 24 25 32 38 44 48 51 54 58 60 64 65 66
91 89 86 86 89 87 99 88 81 86 84 84 89 95 100 96 90 100 98 94 98 100 98 90 80 75 74 76 68 38 28 27 24 24 23 22 20 19 22 24 25 32 39 44 48 51 52 54 57 59 60 58 58 58

GFSWCAN_850_rhum_111.txt.gz
RH
96 97 91 94 89 84 83 86 90 84 85 85 78 66 84 87 80 79 83 71 83 78 72 74 67 67 63 63 89 66 74 69 83 92 85 85 88 73 90 68 72 88 93 99 88 87 89 91 73 85 99 99 99 99
98 94 85 79 78 76 87 87 90 90 82 83 78 82 84 87 80 80 92 96 83 77 78 73 54 51 70 72 75 70 71 74 79 92 88 83 92 86 76 96 68 94 85 92 92 94 99 100 100 100 97 97 98 93
99 98 89 84 81 78 79 82 83 81 86 88 78 77 85 92 88 87 98 90 78 73 69 78 77 69 71 76 77 76 84 71 69 70 73 87 90 75 89 94 90 77 69 91 94 97 96 99 99 97 93 91 77 72
99 97 97 94 87 84 81 80 82 79 89 85 84 82 78 88 91 81 88 98 94 92 90 76 64 68 67 66 76 77 77 72 62 59 67 67 84 62 72 77 85 77 76 84 97 91 90 92 95 98 89 75 66 65
98 99 98 97 94 85 80 72 79 80 95 88 82 85 81 76 89 83 89 86 83 99 99 84 64 75 73 72 70 74 74 67 61 60 78 82 64 71 69 85 91 78 89 96 99 99 91 97 97 94 78 68 67 67
98 98 98 98 95 88 79 69 68 80 86 91 87 84 83 73 84 83 84 78 84 85 94 91 72 77 75 75 70 69 64 64 61 61 59 54 60 61 80 94 83 87 88 84 97 90 91 92 93 85 74 66 69 72
96 96 98 95 92 85 81 74 70 75 82 90 90 86 80 84 84 90 93 100 97 99 92 95 81 72 70 64 64 66 61 65 64 70 63 57 57 65 93 97 93 89 91 92 92 90 98 98 88 83 76 67 74 78
94 89 90 87 84 86 86 80 70 79 88 86 86 80 78 88 87 87 99 100 100 99 97 99 91 77 72 67 67 68 70 66 63 68 63 63 60 66 84 90 87 84 91 91 90 88 93 86 78 65 65 69 77 85
93 93 92 85 82 73 79 83 69 74 88 91 83 85 82 93 92 79 85 95 96 99 96 79 88 96 72 74 80 72 70 75 61 79 74 65 88 91 84 80 87 81 84 89 86 88 74 66 68 71 75 81 81 89
84 90 97 92 78 71 70 70 73 87 91 83 83 98 99 81 97 99 100 100 100 99 97 91 70 94 71 73 71 67 66 94 94 84 65 91 100 86 94 74 72 70 75 75 79 76 68 71 75 80 84 88 88 88
87 86 94 92 74 70 66 69 78 85 89 83 90 98 99 98 99 99 99 99 99 99 94 90 75 92 73 90 93 64 94 90 89 86 88 93 95 76 65 65 64 62 66 76 80 75 78 78 76 83 90 87 78 72
94 94 93 94 79 74 72 73 82 89 78 77 90 99 99 99 99 99 98 99 97 86 81 81 74 71 71 71 74 73 88 92 87 72 91 94 98 69 67 68 67 67 69 72 73 76 79 80 81 81 78 70 67 67
74 78 82 80 73 81 71 66 74 81 81 92 97 99 98 96 98 96 97 98 95 71 74 73 94 74 79 77 73 76 73 91 67 87 90 97 81 73 71 72 74 76 75 79 82 80 79 80 79 68 64 65 64 63
52 64 70 78 77 82 69 61 77 97 98 82 98 98 95 99 96 88 86 84 70 65 69 77 80 77 83 84 91 70 69 82 76 80 91 93 78 76 75 77 77 80 78 78 79 78 73 70 65 62 62 64 64 60
49 51 65 76 87 86 78 72 77 88 81 98 99 97 99 79 89 95 91 63 70 71 77 71 75 72 88 76 73 70 84 86 87 90 99 90 77 76 78 78 77 80 79 78 74 66 62 62 63 63 64 64 64 66
50 59 72 76 86 84 82 88 87 98 96 96 94 97 97 91 84 88 90 84 82 80 66 64 93 92 74 74 77 72 85 83 94 99 100 88 81 80 79 78 78 75 70 63 61 61 61 62 64 66 68 68 68 68
64 80 69 82 94 97 93 96 98 96 96 93 81 88 96 100 99 81 90 99 89 71 97 86 93 74 89 93 78 86 91 99 100 100 98 88 85 84 82 75 66 65 64 61 61 63 64 66 67 66 66 70 64 77
73 80 78 98 97 97 98 91 81 86 94 88 84 84 89 98 100 97 86 92 95 79 71 82 69 87 89 82 89 100 100 100 98 96 97 91 88 88 76 62 65 67 64 63 63 64 65 66 85 89 93 92 82 91
80 85 86 96 91 84 85 86 92 95 88 87 91 88 90 89 97 98 93 92 100 90 72 71 96 97 97 94 98 99 100 99 100 99 93 93 95 81 69 71 71 71 68 62 63 68 70 72 92 100 93 90 99 99
98 81 75 91 81 66 97 89 73 88 90 83 91 96 84 95 85 78 81 96 98 95 81 86 97 99 100 91 91 89 93 93 88 97 96 100 91 77 70 68 74 78 72 81 99 100 90 87 88 84 85 84 79 74
100 90 87 87 97 91 96 95 79 83 90 92 93 97 99 92 88 89 96 95 99 99 100 86 87 97 100 96 95 89 89 90 86 82 90 99 90 75 75 83 87 76 74 87 89 79 86 97 99 96 90 88 81 93
99 98 98 100 95 91 97 97 94 82 85 93 98 87 92 95 96 97 94 99 99 100 96 90 92 71 98 99 93 89 88 88 88 86 86 78 82 82 94 98 92 90 97 94 100 98 98 91 88 87 83 63 70 86
96 96 89 80 96 98 96 98 98 85 94 94 97 95 97 98 91 86 96 96 97 90 90 85 79 83 92 93 91 89 87 94 95 91 82 77 81 86 94 85 91 93 98 98 95 95 95 91 89 88 75 60 79 96
83 95 82 80 97 97 95 98 98 98 98 97 96 97 98 91 86 93 98 96 94 93 91 90 87 93 96 97 94 91 95 92 88 86 83 96 95 100 92 88 100 98 97 97 93 84 79 78 66 67 68 90 92 87
94 96 98 98 96 97 97 98 98 97 97 96 96 95 97 86 97 96 94 96 98 94 95 97 97 90 90 97 96 96 95 89 85 95 100 92 96 98 98 98 98 97 93 90 92 73 70 81 84 87 84 89 92 95
97 96 97 95 96 96 90 95 93 93 88 89 94 81 78 96 99 92 98 99 98 95 92 94 94 96 93 89 93 94 94 90 94 95 94 94 92 86 88 84 71 61 47 42 70 94 96 94 96 97 96 89 87 93
97 97 89 85 91 92 94 85 70 85 90 90 96 92 95 89 88 97 96 98 99 96 93 94 96 88 88 91 92 93 92 95 94 85 88 90 88 80 76 64 63 61 68 59 42 37 47 65 82 88 89 86 90 95
96 97 95 97 95 87 96 91 88 87 91 83 81 88 89 94 99 98 96 97 99 98 98 97 98 98 93 87 84 88 92 94 92 84 78 79 81 87 89 84 78 69 51 28 21 21 21 22 24 26 30 43 58 62
96 96 95 96 95 90 96 97 95 89 94 96 97 98 98 97 99 98 96 98 98 98 96 96 97 97 92 90 91 91 89 90 87 78 61 48 41 40 31 30 26 23 20 20 19 19 20 21 23 26 32 40 47 57
95 96 89 84 92 96 99 98 97 89 91 82 85 94 96 99 99 98 97 98 98 96 96 95 95 97 95 95 94 97 94 86 61 46 40 28 22 25 23 23 21 20 18 17 21 22 26 32 37 46 55 55 63 73
91 91 84 86 96 95 88 88 90 92 92 96 81 80 94 94 98 99 95 95 99 88 95 96 96 96 92 88 80 76 76 64 51 54 65 62 47 27 22 21 20 18 19 21 23 29 36 40 46 52 62 69 66 64
94 87 83 94 95 91 98 97 97 91 95 90 92 92 99 92 96 94 98 98 98 97 99 97 92 96 93 90 76 62 56 49 47 33 25 23 22 22 20 17 18 20 22 29 35 40 43 46 49 50 52 53 52 53
92 81 82 88 94 99 89 98 87 93 91 95 97 96 95 93 99 97 98 98 95 91 91 95 94 93 92 85 77 68 56 37 29 27 24 22 20 18 18 21 22 30 36 40 42 44 46 46 46 48 49 52 53 54

GFSWCAN_850_rhum_114.txt.gz
RH
98 99 99 98 98 91 83 89 84 82 82 76 64 59 78 80 81 79 79 73 65 69 67 71 64 65 68 71 92 69 74 73 87 93 93 92 97 82 91 76 82 92 98 92 85 82 89 97 75 92 99 98 99 100
98 96 98 98 98 92 80 86 87 82 80 77 73 55 79 84 79 80 77 68 70 67 64 70 53 52 65 73 75 73 87 85 85 91 84 82 96 94 84 98 76 94 87 91 93 94 99 100 100 98 93 91 79 82
98 96 97 98 98 95 90 90 90 87 83 80 75 73 82 86 81 77 78 80 74 63 70 75 73 64 62 72 77 73 78 75 68 68 77 91 89 88 94 98 88 80 76 93 92 98 96 99 98 92 81 72 69 70
99 97 90 91 91 91 91 86 89 86 80 82 75 75 84 88 85 81 86 78 72 73 88 76 73 71 72 68 77 76 72 71 62 60 69 73 86 72 82 80 92 85 79 90 96 96 98 98 98 86 72 69 66 68
99 96 95 96 88 81 83 83 85 82 86 82 79 76 77 86 86 79 81 81 80 87 95 76 68 74 73 65 71 73 73 68 63 63 82 79 75 77 81 85 98 83 94 97 98 90 93 99 98 76 69 70 71 69
100 98 98 98 96 86 78 82 80 82 89 86 82 81 72 74 86 76 74 76 75 77 89 91 68 80 74 72 71 71 67 68 64 68 67 59 65 63 84 87 89 89 84 85 96 95 86 92 90 73 68 69 72 74
100 99 98 98 98 90 74 74 80 88 91 87 80 80 75 68 84 78 87 99 86 93 88 91 79 74 69 62 62 65 63 62 65 69 70 63 60 69 97 100 98 90 90 87 86 83 96 94 88 75 73 74 72 76
100 99 98 99 97 94 72 68 77 82 92 91 88 82 80 80 80 91 100 99 97 93 91 96 93 78 71 65 64 70 64 70 64 68 71 69 63 75 94 96 92 84 97 93 93 91 82 82 74 74 73 75 75 80
98 99 98 98 97 91 75 70 76 81 87 90 79 74 86 92 83 87 99 100 97 98 86 85 91 96 73 68 80 71 71 77 65 77 79 72 92 91 89 91 84 85 88 90 86 88 86 75 70 74 75 79 76 82
96 97 97 94 92 89 81 68 77 88 91 83 83 78 88 72 97 90 95 100 97 99 99 96 68 88 70 79 72 66 69 93 94 84 72 93 97 88 94 79 76 79 83 80 79 84 68 69 71 78 78 80 77 74
98 98 94 84 80 79 78 68 78 95 94 75 83 97 99 98 99 100 99 99 97 99 88 88 79 89 77 86 91 69 95 94 93 84 88 96 98 77 84 80 80 80 80 79 74 69 67 71 74 70 73 70 66 62
99 98 86 72 68 68 71 74 95 87 69 69 91 100 100 99 99 99 98 96 96 94 90 93 86 75 74 73 74 79 90 92 93 79 93 98 96 70 72 71 70 71 77 79 77 74 77 76 71 65 62 59 58 58
97 98 91 75 68 64 67 79 81 70 70 95 99 99 99 98 97 94 97 96 100 85 80 78 92 69 80 76 78 83 79 95 81 90 91 92 82 74 72 74 73 70 69 70 75 77 78 75 72 63 55 57 58 59
97 97 96 82 72 69 69 75 92 90 91 91 98 98 92 96 88 92 90 88 62 69 73 76 86 77 82 92 89 77 83 82 82 88 88 97 83 74 73 72 72 74 74 74 74 75 71 66 59 57 59 59 60 59
95 97 97 90 82 71 72 90 88 86 74 93 100 96 96 83 85 99 99 93 78 68 77 70 75 67 90 82 74 74 92 91 90 88 94 89 80 76 76 76 74 75 75 70 68 63 59 57 56 57 60 62 63 64
79 92 94 94 88 76 74 76 90 86 78 89 91 97 98 92 75 83 97 99 81 78 62 58 90 84 80 84 85 70 66 89 86 98 93 85 78 77 76 76 74 74 71 66 61 56 56 57 58 59 61 62 56 58
63 69 78 83 95 92 86 79 80 88 91 88 86 95 97 99 98 72 82 95 92 67 93 90 91 82 88 95 84 63 91 94 97 100 90 79 76 77 76 76 75 71 66 61 56 57 59 61 59 57 55 56 57 73
39 59 75 97 98 98 97 91 87 90 100 93 91 92 97 99 94 90 87 92 85 74 76 83 70 88 94 91 93 93 100 96 100 95 88 83 81 79 78 74 73 63 58 56 57 58 61 60 58 66 67 77 85 90
50 63 92 96 85 83 79 84 85 94 85 79 82 91 94 88 92 96 94 97 100 97 81 76 94 97 96 92 95 92 94 96 100 99 92 91 88 85 82 72 61 61 58 56 57 56 57 61 79 88 83 84 88 83
74 75 92 96 76 63 88 85 67 82 97 83 90 92 84 84 78 78 78 85 94 100 100 92 95 97 84 82 84 86 88 90 93 99 100 96 94 89 76 63 59 59 61 62 63 62 67 71 75 85 80 80 86 91
95 89 98 91 76 86 91 88 66 66 90 87 91 95 99 96 92 81 79 84 97 99 100 95 83 83 89 88 88 88 88 90 90 83 80 96 98 87 70 67 64 65 62 61 65 63 78 93 96 94 89 91 93 77
90 98 98 96 79 85 95 97 99 84 76 92 99 96 93 98 97 87 90 96 97 98 98 87 76 71 70 68 82 89 88 90 91 88 86 82 80 76 74 68 70 71 66 65 67 76 86 91 88 91 92 92 86 67
96 97 89 89 87 99 96 98 98 92 97 97 99 99 99 95 90 93 95 93 93 92 90 82 74 69 62 74 86 88 88 87 86 84 82 82 67 64 65 67 73 70 79 89 93 98 99 96 97 99 98 93 74 67
87 75 64 70 76 94 96 98 98 90 94 98 98 99 99 99 98 95 98 97 91 84 83 75 76 73 81 87 86 85 84 88 89 89 80 73 68 69 75 82 83 90 94 96 95 94 95 98 96 90 70 66 78 90
89 91 100 100 100 98 98 98 98 98 98 98 97 99 98 89 99 99 80 92 100 98 94 91 89 87 82 89 92 91 90 90 92 88 81 74 73 90 100 94 100 100 98 97 99 99 97 92 74 73 78 74 81 92
99 95 98 92 98 96 94 100 99 98 96 97 96 88 81 98 98 94 96 98 100 97 93 94 95 98 95 93 97 98 96 94 91 82 95 100 92 88 91 91 94 97 96 95 93 89 71 71 81 89 95 97 97 90
98 96 96 96 97 98 93 91 77 88 93 94 98 96 96 94 90 98 98 98 98 98 96 96 95 94 94 95 97 97 96 96 92 91 92 98 99 97 92 87 86 82 63 48 42 43 56 76 87 91 92 93 91 81
96 97 96 96 97 97 96 96 97 95 96 94 89 95 92 94 96 96 98 96 99 99 99 99 98 92 92 88 87 90 94 97 99 94 89 92 93 93 88 76 69 71 77 72 52 31 27 28 32 37 43 47 52 61
96 96 96 96 96 95 95 95 97 94 96 96 96 96 99 97 99 97 97 96 98 97 96 98 97 97 99 96 96 97 97 96 94 92 89 82 81 82 82 91 92 84 59 31 22 21 20 20 22 24 28 38 48 56
97 96 95 95 95 95 96 96 95 95 90 93 90 95 98 99 100 97 98 95 99 98 98 98 96 97 95 94 93 95 96 97 97 92 83 68 62 49 44 40 29 25 22 21 20 22 24 30 34 42 46 49 52 57
96 96 95 95 95 95 96 98 96 96 93 90 82 79 92 95 97 98 96 92 97 97 96 97 97 97 96 95 95 96 95 94 87 59 43 48 41 36 27 25 22 20 18 20 22 29 36 39 42 46 49 53 54 54
96 92 83 96 92 94 97 91 95 83 95 95 95 89 90 85 92 96 98 98 99 96 98 97 94 94 96 96 94 90 84 72 50 52 51 43 33 25 24 20 18 20 22 29 36 40 42 45 46 46 47 50 51 52
92 80 81 86 96 98 91 99 89 97 93 94 97 97 96 88 99 98 98 100 96 88 90 96 97 96 96 95 80 64 57 53 41 29 26 24 22 19 18 20 22 31 37 40 42 43 42 43 47 50 51 52 51 53